Theta_e
318 318 318 319 319 319 318 318 319 319 320 320 319 320 320 321 321 322 322 322 323 324 324 325 326 326 327 327 328 327 323 326 318 316 314 317 329 333 335 338 337 338 335 321 313 311 309 310 310 312 312 313 313 312 312 313 313 313 304 302 300 302 300 305 302 303 305 303 303 303 304 304 302 304 305 307 305 306 307 306 309 310 309 312 311 313 322 325
318 317 318 318 318 318 318 318 318 319 319 319 319 319 320 320 321 321 321 322 322 323 324 325 325 326 327 327 326 325 323 323 315 313 317 327 330 333 335 336 337 336 330 320 311 310 308 308 310 311 310 307 314 309 312 310 312 307 304 304 300 303 304 306 305 306 304 304 305 304 305 305 304 305 306 303 304 304 304 305 307 307 309 311 311 312 319 323
318 317 317 317 317 317 317 317 318 318 317 318 318 318 318 319 320 320 321 322 322 323 324 325 325 326 326 326 325 324 325 320 313 309 317 330 333 333 335 335 334 334 322 314 314 312 309 309 310 310 310 307 309 306 310 308 309 306 307 299 300 306 304 306 306 304 305 306 304 304 304 305 306 306 308 303 304 305 303 303 305 306 306 309 310 311 317 322
318 317 317 316 316 316 315 316 317 317 317 317 317 318 318 318 319 320 320 321 322 323 324 324 325 325 326 325 324 326 322 316 306 310 320 330 332 334 334 332 331 329 323 316 314 313 312 312 311 311 307 306 305 309 306 307 309 307 302 301 303 304 303 303 305 305 304 306 305 305 304 303 305 306 306 304 302 303 305 307 306 306 307 310 312 312 315 319
318 317 317 316 316 316 315 315 316 316 317 317 317 316 317 318 319 320 320 321 322 323 323 324 325 325 325 325 322 326 325 303 305 314 323 330 331 331 330 330 327 318 317 313 313 313 312 311 310 309 308 304 306 306 305 306 306 306 302 302 304 304 303 303 304 303 304 304 305 305 302 303 307 305 304 305 301 302 305 307 309 309 309 310 312 313 315 316
317 317 316 316 315 315 315 315 315 316 317 317 317 317 317 318 318 319 319 320 321 322 323 324 325 325 324 323 327 325 312 294 310 318 325 328 329 326 327 326 327 317 314 313 313 312 311 310 309 305 305 304 303 302 304 306 306 301 302 303 304 304 303 303 303 301 303 304 304 303 305 306 303 304 305 305 304 306 307 309 310 310 311 315 315 315 315 315
318 317 316 315 315 315 315 314 315 316 316 316 316 317 317 318 318 319 319 320 321 322 323 324 324 325 323 322 327 320 309 307 312 323 328 327 326 321 324 325 326 315 314 313 312 310 310 308 308 306 305 305 304 304 304 304 306 304 301 303 302 304 303 303 303 301 302 304 304 306 306 303 304 301 306 304 307 308 310 311 311 310 308 312 315 315 315 316
317 317 316 315 315 315 315 315 315 315 315 315 315 316 316 317 318 318 318 319 320 321 323 324 324 323 322 330 317 310 307 307 318 323 324 326 320 318 323 318 317 317 314 312 311 309 309 307 306 308 305 302 304 304 304 304 305 303 301 303 302 304 304 303 303 302 302 303 304 304 302 303 304 304 303 303 306 308 309 310 309 310 309 308 312 314 314 315
316 315 315 314 314 315 315 315 314 314 315 315 315 315 316 317 318 318 318 319 320 321 322 323 323 322 320 320 313 305 304 317 322 321 320 318 316 314 321 318 316 314 312 313 312 312 310 308 308 308 303 303 306 304 304 303 301 305 303 303 303 304 304 303 302 303 303 304 304 302 303 304 304 304 302 305 306 309 310 309 309 309 308 308 310 313 314 315
316 315 314 313 314 313 313 314 314 314 314 314 314 315 316 317 317 317 318 318 320 321 322 323 323 320 319 319 308 300 312 320 321 320 317 315 314 314 316 316 316 314 313 312 312 312 310 309 310 310 309 305 307 303 304 304 302 305 304 304 304 304 303 303 304 303 303 305 304 302 303 304 304 303 301 309 309 309 308 308 309 308 308 308 309 310 313 315
316 315 314 313 313 313 313 313 313 313 313 314 314 315 316 316 317 317 318 318 319 321 322 323 322 321 324 316 303 300 318 322 320 317 315 315 316 315 316 316 314 314 313 313 312 312 312 312 312 311 311 305 306 303 305 303 305 305 305 304 304 304 305 304 304 303 304 303 303 304 303 304 304 303 302 308 308 308 308 308 309 308 308 309 309 310 313 314
317 316 315 314 313 312 313 313 312 312 314 315 315 315 316 316 317 317 318 318 319 321 322 323 321 320 316 308 304 309 315 319 318 317 318 318 314 312 313 313 315 317 315 310 312 314 313 311 314 308 303 308 302 304 302 305 305 304 305 301 303 304 303 304 303 304 304 303 304 305 302 301 302 300 306 308 307 308 308 308 308 309 308 310 311 310 312 313
317 316 315 314 313 312 312 313 313 313 314 315 315 316 316 316 317 317 318 318 320 321 322 322 321 323 316 302 311 317 319 318 315 315 315 317 315 315 316 317 317 316 317 313 311 312 312 314 312 307 308 307 305 301 304 307 305 305 304 303 301 301 301 304 305 304 302 304 304 304 294 300 303 304 307 308 307 307 307 307 308 309 309 309 311 311 311 312
316 316 315 314 313 312 312 314 313 314 314 315 315 316 316 316 317 317 318 318 320 321 322 321 322 317 311 303 313 317 319 319 315 315 316 316 316 317 315 316 316 315 316 312 312 313 316 313 313 309 310 306 303 307 305 305 305 302 303 303 299 299 298 303 304 303 301 303 303 304 295 298 303 306 308 308 307 306 305 306 307 308 309 309 310 310 310 311
316 315 314 313 313 312 312 314 314 314 314 315 316 316 316 316 316 317 319 320 322 322 321 320 322 317 304 307 314 319 324 320 314 315 317 316 314 313 313 314 313 313 313 313 312 312 312 314 313 307 304 306 308 305 302 302 302 303 297 295 300 297 300 301 303 303 300 301 304 302 296 298 302 305 306 306 306 306 305 306 308 308 309 309 309 310 310 310
316 315 314 313 313 312 312 314 314 314 315 315 315 315 317 317 318 318 320 321 322 320 322 324 320 314 304 300 314 325 320 311 311 317 318 314 318 312 314 313 314 314 313 311 313 313 313 312 307 306 305 305 303 302 300 300 299 301 297 299 298 298 298 299 300 303 302 302 303 301 297 300 301 305 305 304 306 305 305 306 308 308 309 309 309 309 309 310
315 315 314 314 313 312 313 314 315 315 315 315 315 316 317 318 319 320 321 321 321 320 323 313 310 308 299 308 313 309 310 316 314 317 315 314 314 314 313 313 311 311 313 313 314 314 311 308 305 307 307 303 303 303 297 295 296 297 300 296 300 297 297 295 299 302 303 302 299 302 298 299 302 304 306 305 306 306 305 305 306 307 308 309 309 309 309 309
315 315 314 315 314 313 313 314 315 315 314 315 315 318 318 320 321 319 321 322 322 316 314 314 315 307 299 304 303 305 315 313 315 312 313 313 313 313 313 310 310 311 311 309 311 308 309 305 305 302 302 302 302 300 294 292 295 296 297 295 296 297 296 296 297 299 301 300 299 300 299 299 302 304 305 306 307 306 306 306 306 307 307 308 308 308 309 309
315 315 314 315 314 314 314 314 314 314 315 316 318 319 319 319 322 324 314 312 307 301 297 301 301 294 294 301 310 311 315 313 315 315 310 312 313 314 313 313 313 307 306 304 305 306 307 306 305 302 297 298 298 299 297 298 297 296 298 297 297 296 296 296 298 300 301 299 298 298 297 298 301 303 305 306 307 306 306 307 307 307 307 308 308 309 309 309
316 315 314 314 315 315 314 314 315 316 316 317 317 318 318 309 307 304 310 308 304 301 306 305 304 303 303 307 310 312 315 315 309 312 313 312 312 311 310 311 311 309 304 300 304 305 307 300 296 296 298 300 301 301 300 299 299 298 298 297 295 296 297 299 300 301 301 298 298 299 299 299 300 302 304 305 306 306 306 306 306 307 307 307 308 308 309 310
317 316 315 315 315 315 315 314 315 316 316 318 319 315 299 300 296 295 302 303 309 305 308 306 308 307 307 311 311 310 307 307 312 310 312 315 312 310 306 307 305 301 303 306 304 305 305 298 298 301 301 302 302 302 301 299 298 297 297 297 296 299 295 298 299 300 302 297 297 300 299 300 301 303 304 305 305 304 305 305 306 307 307 308 308 309 310 310
317 317 316 315 314 315 315 314 314 317 316 318 317 311 306 306 314 314 305 296 303 309 305 309 308 307 309 312 313 313 314 306 307 310 313 313 309 305 305 304 302 298 304 304 302 300 297 296 299 302 302 302 301 300 300 299 298 298 297 298 296 297 300 301 301 300 300 298 296 299 298 299 301 303 305 305 305 305 307 307 307 307 307 308 309 309 310 311
318 317 316 316 315 314 314 314 314 317 316 314 312 311 308 317 317 320 313 306 299 307 305 305 303 305 307 310 312 312 305 303 303 308 309 312 307 306 305 301 300 300 301 301 296 297 294 298 301 302 302 300 299 299 299 299 299 298 297 296 294 301 295 293 299 299 300 298 297 298 296 298 301 303 303 305 305 306 308 308 308 309 308 308 308 309 310 310
317 317 317 316 316 315 315 314 315 315 314 315 314 311 319 318 317 317 314 298 297 301 305 306 307 305 306 304 312 309 304 304 306 305 313 310 305 308 305 302 300 301 299 300 298 297 296 300 299 302 301 300 297 298 298 297 295 299 299 298 296 298 298 296 296 300 300 301 299 299 298 298 301 300 302 305 307 307 307 308 309 310 311 311 313 313 312 311
317 317 317 317 316 316 315 315 312 312 316 314 313 317 318 319 316 316 311 299 297 300 307 305 309 307 308 312 313 306 306 305 307 311 312 310 306 303 302 306 302 298 299 301 299 297 298 300 303 299 300 299 299 296 298 299 295 297 300 299 298 298 297 298 300 298 296 295 298 299 291 293 301 301 303 306 306 305 307 307 307 308 310 311 309 310 312 313
317 317 317 317 317 315 316 310 311 314 312 310 314 318 318 319 318 311 306 294 290 298 300 295 307 300 314 305 311 309 304 299 308 312 312 312 311 306 303 301 302 296 299 300 298 299 299 299 302 301 300 300 300 297 300 300 295 294 297 302 300 299 299 299 298 297 291 290 299 300 290 287 297 297 300 303 303 303 305 306 307 308 308 309 310 311 310 311
317 317 317 317 317 316 309 305 316 314 306 309 318 318 319 316 318 316 297 291 287 299 295 304 300 302 311 306 307 305 291 295 309 310 311 311 306 311 300 299 299 301 303 303 296 294 299 299 300 301 300 299 298 296 301 300 296 294 298 301 299 300 299 299 298 298 295 300 301 300 297 290 290 296 301 302 301 302 303 304 306 307 308 310 310 311 311 312
317 317 317 317 317 316 312 314 312 308 306 312 317 318 319 317 318 308 295 282 282 304 298 296 302 309 309 308 309 299 299 304 298 303 309 310 308 305 301 300 298 299 301 300 289 303 299 298 299 299 299 298 297 301 304 302 297 298 298 302 301 299 300 299 299 296 297 295 290 296 299 291 290 298 301 302 299 300 301 303 305 306 309 310 312 312 312 312
317 317 317 317 317 316 317 313 312 308 314 316 317 318 318 317 311 299 290 280 300 297 308 297 311 306 305 306 301 302 300 302 299 304 309 308 309 305 298 301 302 301 302 300 294 298 299 301 301 302 299 297 300 297 301 302 297 298 301 302 301 301 300 300 297 296 295 292 288 294 297 288 289 297 298 300 299 299 300 302 304 306 308 313 312 313 312 311
318 317 317 317 316 314 312 314 312 318 316 317 318 317 317 311 301 289 284 277 301 291 300 301 299 298 302 297 297 300 298 299 303 304 306 303 306 307 302 305 302 301 299 299 300 299 299 299 299 300 299 301 297 298 299 300 301 302 303 301 300 300 299 298 298 296 292 287 289 296 296 293 286 295 297 296 299 300 301 303 304 306 309 310 313 313 313 310
318 318 317 317 311 312 311 307 311 318 317 317 316 316 310 303 292 285 278 288 299 300 299 297 297 302 297 295 293 298 299 301 301 302 299 303 301 303 302 299 305 300 298 298 297 299 300 299 299 301 298 300 301 298 300 300 303 304 300 297 298 296 297 295 293 294 286 285 293 297 297 296 285 292 298 301 303 302 302 302 303 304 306 308 311 312 308 306
317 318 318 316 316 316 307 306 313 317 316 317 315 308 301 288 292 283 282 296 288 295 295 295 300 298 296 299 298 295 295 299 301 300 298 298 298 296 297 293 296 289 289 291 291 298 295 297 301 299 300 300 300 298 297 300 300 301 298 297 289 287 289 285 290 285 286 285 291 292 295 291 291 295 299 302 302 303 306 305 304 305 306 309 310 313 307 305
317 317 317 317 315 314 313 317 317 316 315 314 311 306 294 287 278 288 289 291 287 299 295 303 298 297 297 297 296 297 300 294 301 300 302 300 298 298 300 298 299 296 288 293 292 291 294 300 299 300 298 300 302 294 294 292 296 297 295 293 288 283 283 281 285 289 288 291 292 292 295 289 294 297 301 301 303 304 305 306 309 309 308 309 310 312 306 305
317 317 315 316 316 315 316 317 317 316 312 312 305 297 293 283 282 294 291 293 295 299 301 298 298 298 297 294 297 298 293 299 299 298 301 298 297 295 297 299 301 299 295 295 290 291 286 288 295 297 293 301 301 299 299 296 296 296 300 296 290 288 284 282 285 282 284 287 289 292 287 286 287 294 301 303 305 306 306 307 308 310 311 311 312 310 307 305
317 317 317 316 315 315 316 316 316 315 312 307 300 291 283 283 289 288 289 295 296 299 296 300 296 295 294 294 297 298 298 293 299 299 297 297 294 296 296 296 300 300 299 291 295 292 290 290 299 301 303 301 299 304 304 301 297 298 300 301 294 290 294 285 287 287 286 286 286 287 286 293 294 302 303 305 306 306 306 306 307 307 308 309 310 311 309 307
315 315 317 313 312 314 315 316 316 314 310 303 294 287 284 289 286 294 292 302 299 295 296 297 297 293 292 293 295 296 298 297 297 297 295 297 298 295 300 299 298 300 296 290 296 288 291 289 297 300 301 300 299 302 301 302 287 295 297 291 294 301 296 290 288 288 286 286 283 290 289 294 299 299 301 302 303 303 305 305 305 306 307 308 308 310 310 310
312 314 309 312 312 316 316 315 315 312 309 302 292 285 291 294 298 297 300 297 299 299 295 290 291 291 290 289 292 293 295 299 296 295 291 298 294 298 298 300 303 300 300 296 295 300 289 291 292 297 294 296 297 299 302 300 302 297 290 295 301 303 300 292 284 287 286 283 284 290 287 289 290 287 301 300 299 301 302 303 304 305 306 306 308 309 310 311
310 310 311 310 313 316 316 315 313 309 304 298 290 291 297 293 300 298 303 302 300 300 295 293 293 297 291 291 290 292 295 292 293 294 291 295 290 301 298 298 303 301 301 302 296 297 298 288 291 293 295 297 299 299 298 301 300 299 295 305 293 287 286 292 288 280 281 281 284 288 290 290 292 292 298 298 298 300 301 303 303 304 305 306 307 308 310 311
310 308 302 311 317 315 314 314 310 303 294 290 289 288 295 296 300 300 303 303 303 299 294 295 294 295 296 291 293 294 294 289 294 292 290 294 289 299 298 300 299 302 302 301 295 296 298 288 290 291 295 297 297 297 288 293 299 302 301 297 302 296 290 288 288 287 288 283 283 284 288 286 297 296 299 299 300 301 302 302 303 305 306 306 308 310 311 310
305 301 299 314 315 314 313 311 304 299 293 287 289 290 298 295 300 304 303 302 300 297 295 295 298 294 296 296 296 291 294 293 293 292 292 295 292 301 298 301 299 300 301 301 298 301 293 294 285 291 295 296 289 294 292 295 291 292 292 292 295 293 298 295 295 289 286 284 284 284 283 289 297 301 300 301 302 302 303 303 305 307 307 308 309 310 309 308
308 302 302 314 313 313 311 305 297 291 289 293 295 295 298 296 301 300 302 307 302 305 300 297 296 294 296 296 295 297 293 293 294 292 293 294 294 291 300 300 302 299 301 300 298 298 290 291 286 290 289 289 293 299 298 299 298 295 293 291 293 290 288 286 284 296 290 287 284 284 283 290 300 302 302 302 303 304 305 304 306 309 308 309 311 309 307 308
302 294 300 313 313 312 304 294 293 292 288 288 289 296 295 300 300 300 302 303 304 299 302 301 299 298 298 297 298 297 296 293 295 294 295 293 298 297 301 304 303 303 298 294 295 300 297 296 290 288 290 292 296 297 296 296 297 299 298 294 297 296 294 289 283 287 289 290 290 289 286 289 301 302 303 302 303 304 306 306 307 308 308 308 310 308 307 306
299 298 309 312 313 309 301 293 292 288 286 292 298 297 299 298 298 301 299 300 298 303 300 298 299 297 299 299 299 298 298 294 296 294 297 297 298 300 304 303 305 303 302 298 301 300 298 290 289 289 296 297 295 297 297 297 298 297 297 297 298 294 294 292 290 290 289 289 287 287 284 288 301 302 302 296 295 297 303 307 306 307 307 308 309 307 306 306
302 301 302 311 313 308 298 287 285 286 288 294 294 294 299 298 297 296 297 299 298 299 297 297 299 299 298 302 299 297 299 290 298 297 295 300 297 304 303 304 305 300 299 299 296 300 291 291 291 287 287 289 291 294 293 297 296 292 294 297 298 299 298 297 294 292 288 289 289 287 282 289 300 301 299 301 299 299 302 302 307 307 308 312 309 306 306 305
302 303 303 305 309 306 294 295 290 288 287 288 290 289 293 294 298 298 298 297 301 300 299 298 300 301 300 301 300 300 300 295 291 299 300 300 299 300 305 304 305 301 302 308 300 303 294 293 290 284 282 280 281 282 284 287 289 293 293 294 297 296 296 294 289 290 286 289 289 287 287 293 298 298 299 298 296 300 303 304 302 306 308 308 310 309 306 304
297 288 297 298 303 302 301 301 295 290 287 288 287 289 293 291 296 299 299 297 300 299 297 299 300 301 299 298 296 296 297 299 295 294 297 297 297 297 301 305 302 302 300 298 301 301 291 294 293 291 288 287 289 292 297 296 293 288 292 293 295 297 297 297 294 289 287 289 288 290 291 292 295 298 299 298 295 300 301 300 300 303 304 305 306 307 307 306
300 292 294 290 299 298 297 298 294 293 287 292 286 291 288 291 294 295 299 292 298 297 297 297 297 295 295 296 295 295 297 297 299 296 297 297 299 298 298 302 304 301 295 298 300 296 289 289 292 293 293 294 295 295 299 297 293 293 292 292 295 295 295 292 290 288 294 290 286 293 295 291 293 296 298 300 299 300 302 303 303 304 306 308 308 308 302 303
289 296 299 301 293 288 291 293 296 294 295 293 289 294 290 291 292 289 296 297 300 299 293 295 296 297 296 295 296 291 295 295 296 292 297 297 295 296 296 298 298 297 297 300 301 294 290 288 293 294 292 295 296 296 298 297 296 296 295 295 293 295 294 289 290 294 295 289 287 293 296 293 295 298 300 301 302 302 302 303 304 305 306 306 307 305 304 303
297 297 297 300 293 296 296 298 298 295 293 292 290 291 288 290 289 294 294 294 296 295 295 288 291 294 295 297 295 291 293 287 287 293 291 291 292 291 290 293 296 298 298 297 296 293 291 289 292 294 292 294 295 296 297 296 296 295 295 296 296 295 295 294 294 295 295 294 295 295 295 296 298 299 301 302 304 305 304 305 306 305 304 305 306 305 304 305
291 292 292 298 297 295 295 297 296 295 290 292 287 287 290 290 289 293 297 294 290 292 297 292 293 295 295 295 294 290 292 294 294 289 295 294 289 292 290 294 291 291 294 293 295 294 292 288 294 293 289 289 293 295 296 295 295 293 296 296 296 297 296 296 295 296 296 295 296 296 295 294 300 302 302 303 304 304 304 304 305 305 305 305 305 305 306 306
299 298 298 294 292 294 295 296 295 293 290 290 288 289 290 291 291 294 294 299 295 292 295 293 295 296 296 294 293 293 296 296 296 297 298 296 290 295 292 290 295 288 290 289 291 290 292 288 294 290 287 286 290 291 291 292 291 290 290 293 294 294 293 296 293 297 294 292 294 294 291 293 299 303 303 303 303 302 302 303 304 305 306 305 305 305 305 306
300 301 300 296 289 295 292 295 295 293 286 290 291 292 290 291 294 295 291 296 298 299 298 297 297 295 293 293 293 295 298 299 299 300 300 301 300 298 300 298 297 292 289 289 291 290 290 289 288 288 285 285 290 292 290 289 288 286 287 291 294 295 296 297 298 299 298 298 292 289 291 298 300 301 300 300 301 302 303 303 304 305 306 306 305 305 306 306
Wind_Speed
9 9 8 8 7 7 5 5 4 4 3 2 1 1 1 2 4 5 5 6 6 7 7 8 8 8 9 9 9 9 9 4 5 6 6 4 3 6 7 6 7 8 6 5 3 5 5 5 5 4 3 4 2 2 1 0 2 2 5 5 5 1 4 6 3 5 5 4 8 10 10 8 7 5 4 3 4 6 3 6 5 1 2 5 7 6 8 9
9 9 8 8 7 6 5 4 3 3 2 1 1 1 2 3 4 5 5 6 6 7 7 7 8 8 9 9 10 9 6 5 5 2 4 4 5 6 7 6 6 6 6 5 6 6 3 5 4 6 5 3 1 1 2 2 1 5 4 4 4 2 4 2 2 5 1 2 9 9 9 8 3 10 6 6 7 8 8 8 7 7 7 8 7 8 8 10
9 9 8 8 7 6 5 4 4 3 1 1 1 1 2 3 4 5 6 6 7 7 8 8 8 8 9 10 10 7 4 5 5 4 3 5 6 7 7 7 7 3 5 5 3 5 5 1 5 7 4 3 3 4 5 3 3 0 4 5 2 5 6 6 3 6 6 3 8 9 7 6 3 4 6 7 6 8 10 7 9 9 10 11 10 10 10 10
10 10 9 8 7 6 5 5 4 3 3 1 1 1 3 3 4 5 6 7 7 8 8 8 8 9 9 10 9 5 3 3 6 4 3 7 7 7 7 7 6 6 6 6 3 4 3 2 4 7 4 4 3 3 6 3 3 3 4 3 4 3 3 5 6 7 5 5 5 7 6 8 4 4 6 5 8 8 8 9 8 9 10 13 13 12 11 11
11 10 9 8 8 7 6 6 5 4 4 3 2 3 3 4 4 5 6 7 8 8 9 9 9 9 9 9 9 2 2 5 4 3 6 7 7 7 6 6 7 5 4 1 3 2 4 5 6 3 5 4 4 4 2 3 3 2 2 4 3 2 2 5 5 5 5 4 2 6 8 8 5 2 8 8 8 6 3 6 9 7 3 7 13 13 11 12
11 11 9 9 8 7 7 6 5 5 4 4 2 3 4 4 5 6 6 7 8 9 9 9 10 10 10 9 4 3 3 3 2 2 6 7 7 7 6 4 6 7 2 4 4 2 5 5 7 6 5 5 6 5 5 1 1 3 4 2 4 5 3 3 3 3 2 2 3 6 5 4 6 5 8 10 12 4 6 7 8 8 6 7 9 12 11 12
8 11 9 9 8 8 7 6 6 5 5 4 3 4 4 5 5 6 7 8 8 9 9 9 10 11 11 8 2 3 7 3 2 2 5 7 7 5 5 4 4 3 3 3 4 4 6 6 7 5 3 3 2 3 4 2 2 6 3 4 4 4 5 3 5 3 1 1 2 3 4 5 5 10 3 9 13 13 5 6 6 5 4 4 9 11 12 13
8 9 7 8 8 8 8 7 6 5 5 4 4 5 5 5 6 6 7 8 9 9 9 9 10 10 11 3 2 4 7 3 4 1 4 5 6 5 3 5 4 3 3 3 2 4 4 7 7 4 4 2 5 3 3 4 1 3 5 3 4 2 4 4 4 3 1 1 2 1 4 6 5 5 3 10 14 12 7 5 4 3 4 4 7 9 10 10
7 6 6 8 8 7 7 8 6 5 5 5 5 5 6 6 6 7 8 9 9 10 10 10 10 11 5 3 4 5 4 3 4 5 5 5 5 4 3 2 1 3 0 1 2 4 3 3 3 2 2 4 2 7 2 3 5 4 6 5 5 4 4 4 4 3 2 2 2 4 5 2 2 6 11 15 12 11 6 5 5 4 4 6 7 8 9 10
12 9 8 10 10 6 5 7 5 5 5 5 5 5 6 7 7 7 8 9 9 10 10 10 10 10 4 4 3 7 3 5 2 2 4 4 5 6 1 4 4 2 3 3 1 3 4 2 2 3 4 7 1 3 2 4 3 2 6 5 4 5 4 2 2 4 2 1 3 4 5 4 1 3 7 2 1 6 4 6 5 6 8 9 8 8 9 10
11 11 10 10 9 7 9 8 6 5 5 5 5 5 6 7 7 8 8 9 9 9 9 10 9 8 3 6 6 4 2 2 3 2 3 3 4 3 4 5 5 3 3 4 5 4 4 2 2 2 3 4 5 4 2 4 0 4 5 5 5 4 3 4 3 4 3 3 2 3 6 0 3 3 14 3 2 2 6 8 7 7 8 8 9 8 7 8
11 11 12 10 9 10 9 8 7 6 7 5 5 4 6 6 7 8 8 8 10 9 8 8 9 3 5 7 7 2 3 4 3 1 1 3 3 2 4 3 4 5 5 3 4 5 5 4 4 2 1 3 3 7 5 1 1 4 3 5 6 4 5 6 5 4 3 2 0 1 7 11 9 11 18 9 6 4 4 6 7 7 7 8 7 7 7 8
13 13 13 11 11 11 10 8 7 8 5 5 3 4 5 6 8 8 8 9 7 8 9 8 7 3 3 8 3 0 3 2 2 2 4 4 5 3 3 2 4 5 7 4 4 3 4 3 6 2 3 2 5 1 5 2 3 3 4 5 5 6 8 8 4 3 4 2 1 1 7 5 13 19 11 7 5 4 6 8 8 7 7 7 7 7 7 8
13 14 12 12 11 11 10 9 8 7 6 5 4 4 5 6 7 7 7 8 10 9 7 8 3 3 5 0 2 2 3 2 1 3 3 1 2 4 4 4 6 7 7 9 5 2 2 2 0 7 4 4 4 3 6 4 3 4 2 2 5 5 3 6 5 6 7 4 4 1 8 8 2 7 6 6 5 5 8 8 8 8 8 7 7 7 8 9
14 13 11 12 12 11 10 10 9 7 7 6 4 4 5 6 6 6 7 8 6 6 8 6 4 3 7 3 2 4 3 5 2 3 3 2 8 7 6 6 8 8 7 6 4 1 2 3 2 4 3 2 6 5 5 4 4 2 3 6 5 5 4 6 5 7 7 3 5 5 9 10 12 4 5 4 2 4 7 7 7 7 8 8 8 9 9 9
14 12 11 12 12 11 10 10 8 8 7 6 4 5 6 6 6 6 6 7 8 6 4 3 4 4 5 6 3 1 2 5 4 3 2 4 5 3 6 7 5 5 4 4 1 1 2 6 4 3 5 2 5 4 4 3 5 4 6 2 4 4 3 5 3 1 2 5 5 10 8 6 1 6 4 2 4 4 6 7 7 8 9 9 8 8 8 9
13 11 11 11 11 11 10 9 8 7 6 5 6 7 8 7 6 6 6 5 3 3 3 2 2 2 6 3 0 4 5 3 1 2 1 2 5 7 7 6 5 6 5 4 2 1 3 1 1 2 3 4 4 4 5 5 4 6 4 6 1 5 3 5 5 3 3 5 6 10 10 13 10 3 6 7 7 6 7 10 11 11 10 9 8 9 9 10
13 13 12 11 12 11 11 9 8 8 6 5 7 4 4 4 6 6 5 5 2 3 4 3 4 3 3 0 4 5 5 6 3 2 2 2 3 2 1 4 4 5 5 5 2 3 0 2 3 2 4 4 4 6 6 4 6 5 6 5 5 6 7 7 4 6 5 5 7 8 13 18 15 14 12 8 9 11 13 13 13 12 12 10 10 10 11 10
14 13 12 11 11 11 10 9 7 8 7 5 7 8 8 8 5 5 2 3 4 4 4 7 7 10 1 11 8 7 3 3 2 2 5 5 1 1 1 2 6 6 5 5 4 2 2 2 3 3 6 7 8 8 8 2 4 3 2 3 3 3 4 6 2 6 3 6 7 11 13 14 15 14 12 11 12 12 14 14 12 12 11 12 12 11 11 10
15 14 13 12 11 11 11 9 8 8 7 5 5 4 3 5 4 4 4 3 7 1 4 0 10 6 6 6 7 5 3 4 5 2 4 1 3 6 5 4 4 4 3 5 5 2 2 5 6 6 7 9 9 10 1 5 4 3 2 3 5 5 7 7 5 4 3 4 12 14 15 15 17 16 14 14 12 13 13 14 13 12 12 12 13 13 12 12
15 15 13 12 12 10 10 9 8 6 1 6 5 5 6 11 10 7 8 6 3 1 4 4 5 4 5 6 7 10 8 3 2 6 4 1 4 7 6 6 6 6 5 3 3 2 4 6 6 8 1 5 2 4 3 3 1 3 2 3 5 4 8 3 1 5 3 4 7 9 12 14 15 15 16 15 14 17 17 17 16 15 15 13 15 15 14 12
14 14 13 12 11 11 10 9 9 4 3 6 6 5 4 2 3 3 3 6 7 2 2 3 3 5 2 4 3 3 4 5 5 5 3 4 8 8 8 8 8 8 7 5 4 4 5 7 7 2 5 5 4 1 2 4 3 3 5 2 4 6 5 11 2 5 3 4 9 10 13 12 13 14 16 17 17 16 16 16 15 15 15 14 14 13 13 10
14 14 14 12 11 11 10 9 8 4 5 6 7 6 2 2 2 1 3 2 6 2 4 4 5 6 4 2 2 2 6 6 7 9 8 5 9 6 8 9 9 5 7 9 7 6 6 8 5 5 4 4 3 3 2 4 3 4 5 4 5 3 2 4 5 1 3 4 8 10 15 14 15 19 22 21 19 16 15 16 16 15 17 18 17 13 11 12
13 14 13 13 11 10 9 9 7 5 7 9 8 6 3 1 2 3 3 5 3 4 4 3 4 2 7 5 5 7 7 2 3 11 7 7 10 5 6 11 10 7 8 10 11 8 6 4 4 2 3 3 5 5 6 5 6 6 6 6 6 3 4 5 6 7 10 7 3 9 13 13 12 13 11 14 15 14 15 14 15 15 15 15 11 10 12 14
14 14 13 12 11 10 9 9 5 5 5 6 8 7 2 2 2 3 3 2 3 2 1 2 3 4 4 2 4 7 2 1 2 5 8 10 8 6 7 1 5 8 9 10 10 9 6 4 5 4 3 5 6 6 8 6 6 5 10 9 6 6 8 7 4 8 7 6 3 6 8 4 5 8 7 6 5 8 10 11 13 13 13 12 12 13 12 11
14 14 13 12 12 10 10 5 6 5 5 6 2 3 3 3 3 2 2 4 7 5 3 7 7 5 6 6 5 2 5 6 4 3 8 1 4 4 5 5 2 7 11 8 8 5 1 3 4 6 6 5 6 6 7 7 6 7 2 3 7 7 6 5 6 3 5 5 3 4 4 11 4 10 9 7 7 9 9 11 12 12 11 9 10 9 9 11
15 15 14 13 13 14 8 3 6 8 5 6 4 4 3 2 3 3 4 3 8 8 9 3 3 2 2 9 10 6 7 7 4 5 5 3 5 2 6 7 4 2 3 4 2 6 6 5 5 4 7 6 5 6 8 11 6 5 2 0 1 3 5 5 3 5 9 7 12 7 5 10 13 8 11 12 10 10 9 10 11 11 10 9 8 8 8 8
17 16 15 14 15 16 1 4 9 8 3 3 3 4 4 2 2 2 3 6 5 9 6 4 1 3 2 7 7 9 5 11 7 5 5 2 3 4 5 7 10 10 7 6 9 3 7 8 8 9 8 6 8 0 6 10 6 2 1 1 2 1 1 2 3 5 4 7 8 5 8 4 9 4 10 12 10 9 9 8 10 9 7 6 5 6 6 5
17 17 16 14 15 18 4 2 6 7 3 2 3 4 3 3 2 4 5 7 3 4 5 6 2 4 6 7 5 4 6 2 2 5 3 2 4 2 8 8 8 8 10 10 9 4 3 1 4 7 7 7 4 4 4 6 7 3 3 4 5 3 1 2 3 3 4 4 10 8 8 2 19 5 6 10 7 7 7 7 8 7 7 2 4 4 3 2
19 18 16 15 12 10 8 5 7 1 3 3 3 5 5 2 4 7 8 8 7 5 3 4 6 11 11 12 10 5 6 3 3 5 7 5 6 2 4 5 1 4 5 1 2 4 2 1 2 2 5 2 6 6 4 6 6 9 6 5 3 2 2 2 2 3 3 6 10 10 13 6 11 2 9 8 6 7 5 5 5 6 6 5 3 3 2 4
19 20 19 18 10 7 5 5 8 4 3 3 5 6 4 3 6 9 7 4 3 3 3 7 6 13 16 17 10 7 6 5 7 11 7 2 6 4 5 4 2 2 1 3 6 4 3 3 3 1 3 4 6 7 6 2 4 6 4 4 4 4 3 4 3 2 3 10 0 2 10 13 11 5 4 3 6 5 6 6 6 6 6 5 4 4 4 4
20 20 20 16 9 8 12 3 5 6 4 5 7 7 7 7 3 9 6 8 4 9 11 9 9 12 17 14 7 12 10 6 8 10 11 10 9 10 12 10 9 5 7 9 6 5 5 6 4 4 3 5 5 6 4 2 3 4 6 6 4 3 2 3 4 4 8 9 2 3 4 5 19 15 8 2 3 5 6 5 5 7 6 7 7 5 5 5
20 19 21 14 10 10 11 3 6 7 6 4 5 5 8 8 8 9 11 10 4 8 6 7 12 14 15 13 9 11 8 10 10 9 8 9 9 11 13 13 13 9 7 9 8 5 3 4 7 5 3 6 7 8 6 3 8 8 9 8 5 6 7 8 7 4 4 3 5 4 3 11 10 10 14 19 15 10 8 7 5 5 8 9 10 4 5 4
21 20 13 12 12 10 6 5 5 11 10 6 7 3 3 9 7 11 15 11 3 4 8 6 13 10 16 12 11 13 8 4 12 8 10 8 10 10 10 14 10 9 1 4 10 8 6 5 9 11 6 11 10 11 8 5 11 11 7 9 7 5 4 7 5 7 7 5 2 4 0 4 1 2 2 9 10 12 10 9 7 6 8 10 9 5 4 5
21 19 14 11 9 11 7 6 7 10 7 8 8 9 11 8 8 15 15 8 5 4 6 10 12 13 10 3 2 11 1 5 9 9 9 9 10 10 11 13 13 9 7 6 6 3 14 8 4 14 3 16 13 5 2 8 4 7 6 3 6 11 6 9 2 4 3 5 6 5 6 4 5 6 3 2 4 7 10 9 8 10 11 13 9 6 4 6
14 7 12 8 12 12 9 7 9 9 9 9 9 10 13 13 12 13 9 9 6 9 11 12 8 10 8 5 4 6 1 0 8 5 6 10 8 10 11 8 13 18 11 11 5 6 4 7 4 3 2 10 7 1 5 2 7 7 7 7 6 7 4 5 1 3 1 3 14 3 11 11 10 17 15 12 12 11 8 8 9 11 15 10 10 7 7 5
6 6 6 4 10 10 9 10 9 8 4 7 11 11 11 12 12 5 5 11 11 17 12 10 7 9 9 8 7 8 5 5 8 8 7 7 7 10 11 12 10 15 17 11 3 3 3 2 3 4 6 2 3 4 1 4 3 7 6 6 6 4 5 3 6 1 4 9 9 3 12 12 6 11 8 13 12 11 10 12 13 15 11 9 9 8 7 6
6 2 4 8 9 9 9 10 12 9 6 9 13 15 7 14 12 8 7 13 15 13 9 10 5 11 9 10 9 12 9 8 10 8 7 13 6 11 12 6 12 15 19 7 3 2 1 6 3 3 5 4 2 2 3 1 3 3 0 3 6 4 5 8 3 8 7 9 8 8 10 15 11 14 3 10 12 12 13 14 13 12 10 9 9 9 6 4
5 4 5 8 9 11 9 9 10 11 6 9 13 17 12 15 11 9 9 11 12 13 12 12 7 11 9 10 7 10 14 10 12 10 7 8 8 10 15 10 7 13 14 10 7 1 3 6 3 2 1 4 3 6 8 8 3 2 1 4 2 2 4 7 8 2 2 8 5 11 5 14 5 7 11 10 13 13 13 12 9 10 9 7 5 4 1 1
5 4 9 6 13 12 10 9 8 9 11 16 13 12 7 13 7 6 8 14 9 13 11 13 13 8 13 9 13 9 10 9 11 9 10 7 9 6 11 13 8 10 15 16 8 4 4 4 7 4 3 3 6 8 10 11 11 8 7 8 4 4 3 4 3 6 4 5 7 9 13 11 5 7 3 5 9 9 10 8 7 7 7 5 2 1 1 2
2 3 3 8 14 14 14 9 8 12 9 8 12 5 3 8 9 10 11 2 6 1 3 12 13 13 11 11 12 12 9 11 9 8 9 9 11 4 10 11 10 10 11 12 11 6 4 6 8 5 5 9 7 6 10 11 12 12 14 15 15 11 7 6 7 5 2 4 6 6 15 14 3 5 6 3 5 6 6 1 4 6 5 3 3 3 2 2
2 5 4 10 15 19 14 11 3 3 4 13 13 9 6 3 2 8 10 4 5 7 0 3 12 13 12 13 12 13 9 11 11 10 10 10 14 11 6 15 12 16 14 11 15 15 9 4 7 7 8 9 4 3 3 2 4 2 6 10 10 9 8 7 9 5 2 6 4 5 7 20 5 6 4 4 4 1 2 4 4 6 6 4 3 3 2 2
6 7 3 13 14 19 13 10 7 7 5 8 1 7 6 5 3 2 7 7 8 3 4 7 8 11 11 10 12 11 14 8 14 12 11 14 10 14 6 14 12 15 11 3 5 2 5 2 4 7 3 3 3 3 3 2 2 5 5 3 5 12 13 11 7 2 5 4 7 8 7 17 4 5 5 2 1 1 1 3 8 4 5 5 5 3 3 3
5 5 2 5 15 13 15 12 9 9 9 3 10 11 9 4 2 2 5 10 9 9 11 8 7 15 9 9 10 12 15 6 12 14 11 11 6 4 11 9 17 11 12 10 9 12 5 5 7 5 4 4 6 2 4 3 2 3 5 8 9 9 12 6 4 0 5 10 11 8 14 15 2 2 4 4 5 6 6 5 3 7 5 1 3 3 3 4
1 2 1 5 9 11 13 5 7 9 10 7 12 16 12 9 5 8 5 7 4 4 9 9 8 6 4 5 7 9 15 17 4 16 11 8 7 3 3 10 14 10 8 4 3 11 5 8 10 10 12 12 10 10 11 8 9 7 6 9 14 14 15 7 8 7 10 14 16 10 14 20 7 5 5 3 3 6 6 7 3 3 2 2 2 2 4 5
6 7 4 3 8 9 9 6 6 5 7 7 9 10 13 13 8 8 5 6 2 2 3 1 3 6 6 10 8 8 11 14 15 4 12 7 3 2 3 9 13 12 7 9 8 10 1 2 8 12 13 14 10 2 6 12 8 8 12 15 15 16 16 13 6 9 16 18 9 13 18 23 23 14 3 5 2 7 9 5 5 5 4 4 4 5 4 4
2 7 5 7 2 9 10 8 10 10 8 9 7 9 15 18 12 7 11 6 6 5 1 2 2 8 6 11 13 12 13 13 3 4 8 9 3 2 2 1 6 4 8 6 4 4 2 3 11 12 15 15 14 12 6 14 12 15 13 14 16 15 16 14 14 19 18 7 17 15 18 16 26 25 18 12 6 6 6 7 9 7 6 5 7 6 4 5
6 2 7 2 3 3 11 11 14 13 12 14 5 7 14 15 12 8 8 10 0 7 6 1 6 6 7 13 11 9 11 10 9 8 7 4 6 2 3 1 4 3 5 2 1 4 5 6 9 11 15 17 15 14 8 11 11 11 15 14 17 18 16 16 20 23 18 13 17 18 15 18 21 25 20 13 16 18 14 10 12 12 8 7 8 7 6 8
4 3 3 1 4 1 9 5 16 14 15 14 6 8 9 16 16 13 8 10 8 5 10 7 12 14 12 9 7 4 8 7 7 5 5 4 5 3 3 2 2 3 4 3 4 1 2 7 7 10 13 14 16 16 12 12 10 11 13 15 17 19 22 24 24 23 22 18 19 21 23 22 22 27 21 13 13 13 14 14 9 5 8 11 7 8 9 8
6 5 4 3 3 3 2 6 8 14 12 16 9 10 10 15 18 13 8 11 9 12 10 16 14 13 13 12 9 9 9 10 10 8 5 7 3 5 4 3 4 3 0 6 5 2 5 5 9 6 6 13 18 17 14 14 13 13 10 13 16 19 22 24 21 18 18 22 23 25 27 25 23 23 20 20 18 15 17 15 11 14 13 10 14 16 12 13
3 2 3 1 7 6 3 5 7 8 9 12 10 8 8 14 18 15 11 10 13 12 13 18 19 10 12 15 14 14 13 9 9 6 2 6 9 4 6 3 7 5 3 2 2 0 4 2 1 0 6 11 17 16 15 8 6 8 14 15 19 23 21 13 12 14 15 17 19 19 17 20 23 15 13 19 18 16 21 19 17 17 18 17 14 15 18 16
5 1 1 2 4 5 8 5 7 8 8 8 12 12 10 17 12 10 6 2 8 9 12 17 13 8 8 11 16 21 21 13 7 4 5 6 4 4 1 2 4 9 5 5 3 4 4 3 4 5 9 12 17 12 7 5 5 10 16 24 24 19 13 12 15 18 20 16 13 12 16 18 20 20 16 18 19 16 17 18 16 18 19 17 16 17 19 19
Wind_Direction
190 189 186 179 177 171 170 172 167 174 155 148 122 65 51 24 23 20 10 1 355 351 342 342 344 340 337 340 344 345 325 252 203 216 215 62 7 348 333 320 316 312 316 283 217 213 201 189 176 186 191 214 69 197 111 354 323 244 213 237 223 248 207 135 209 178 47 150 142 168 175 192 174 165 163 166 211 240 133 211 174 131 184 84 111 120 123 131
193 192 195 187 181 176 176 184 180 177 147 197 135 62 19 26 16 5 4 359 348 343 342 341 341 342 340 342 345 343 315 251 220 176 52 35 4 340 331 321 316 309 294 246 212 214 218 179 176 189 189 162 218 89 207 129 289 233 227 242 250 184 61 14 58 68 170 101 151 166 180 202 191 172 151 213 206 203 217 217 202 212 191 134 140 137 150 153
185 192 194 196 191 185 198 184 199 173 229 255 123 357 0 2 6 356 350 352 347 341 338 341 342 338 345 347 343 335 303 233 220 155 89 33 351 339 334 327 310 306 274 313 307 278 275 290 171 202 210 158 211 156 237 105 279 191 281 216 214 63 81 57 35 88 55 2 148 159 169 210 99 188 124 218 230 200 227 224 199 221 207 185 167 160 158 169
192 197 194 194 197 200 203 203 199 209 228 243 325 329 343 347 356 348 344 342 340 339 338 339 338 342 343 345 350 320 273 237 214 113 69 16 355 339 334 327 315 273 260 260 300 286 278 234 187 229 177 220 132 176 194 101 254 106 237 290 43 33 134 84 79 72 58 2 157 158 142 197 155 184 179 198 243 228 237 241 235 211 221 193 167 167 165 174
199 200 198 195 203 200 203 213 214 217 220 232 323 314 332 329 338 343 345 337 335 337 337 337 339 340 345 343 329 268 255 256 130 79 33 4 346 343 336 331 312 291 245 287 229 214 241 202 189 221 225 151 170 182 86 121 348 213 21 30 15 46 93 90 86 53 36 357 136 138 162 199 118 173 214 222 228 233 239 220 221 254 337 146 158 169 170 181
199 203 202 202 205 209 207 211 218 225 228 237 261 314 301 314 320 335 335 336 330 332 333 339 341 342 341 340 303 258 255 229 56 95 357 351 337 336 329 316 301 306 263 242 266 197 219 200 199 189 202 177 172 202 112 49 3 209 123 76 38 14 58 84 112 67 319 121 153 178 181 106 179 216 210 226 235 243 65 40 42 57 67 127 158 159 177 186
203 207 203 210 209 209 213 209 222 225 232 246 256 278 293 300 316 322 332 326 327 326 333 338 343 344 336 312 225 241 243 66 216 63 14 332 318 326 311 259 244 271 262 256 205 212 209 201 224 190 194 108 120 90 104 156 190 292 110 127 70 6 62 57 70 101 87 265 122 52 46 218 200 238 168 228 239 250 87 83 71 73 96 135 161 175 184 190
210 212 194 214 216 215 213 217 217 226 239 249 269 272 292 300 308 319 322 321 321 325 331 339 347 345 343 258 228 203 224 113 78 94 8 323 305 340 247 275 283 285 270 313 292 224 204 207 210 172 206 221 124 144 126 179 219 207 120 119 91 64 76 78 89 121 124 79 14 267 204 220 219 266 35 243 245 247 239 130 124 119 123 168 191 189 195 197
186 219 197 219 228 221 228 219 215 230 242 249 264 279 285 304 305 319 313 315 318 326 331 339 347 343 324 284 254 236 160 54 1 349 344 340 330 320 251 267 329 259 76 299 316 326 263 170 252 224 174 141 137 130 200 254 151 19 101 116 124 96 97 92 116 129 148 119 159 189 223 168 268 346 266 253 242 241 216 157 184 184 191 195 205 202 200 199
183 197 202 219 228 235 282 241 218 237 245 261 271 284 288 295 308 308 310 310 317 324 331 336 350 343 301 232 231 242 82 298 338 358 348 324 306 282 277 7 331 307 271 31 269 305 262 60 343 136 75 74 194 82 339 294 44 92 117 119 118 109 125 163 185 148 166 162 171 241 234 187 116 250 267 180 106 112 156 215 199 208 225 220 216 213 208 205
186 193 204 214 219 231 228 230 235 248 258 260 274 276 285 289 297 301 303 308 314 319 325 335 348 330 256 240 234 204 356 287 8 359 2 308 314 350 9 344 338 313 83 78 46 7 358 45 61 85 265 103 136 92 16 61 316 104 118 115 117 136 111 140 163 143 202 174 183 270 273 336 224 219 243 206 140 161 202 217 205 215 228 226 218 215 208 211
188 201 202 204 208 224 224 231 231 240 239 249 256 276 279 289 298 301 303 308 307 314 322 330 338 321 277 253 240 16 327 8 343 350 11 341 63 30 349 346 332 329 313 104 62 22 6 37 309 348 50 173 141 120 89 110 359 121 190 198 166 169 197 175 195 164 233 172 108 27 278 248 209 230 242 211 146 157 212 224 214 215 223 224 219 208 203 208
193 202 210 202 217 218 223 225 220 226 225 241 256 288 299 302 297 300 301 299 304 317 323 330 324 256 297 220 66 38 354 25 49 99 99 94 108 78 56 9 8 25 358 80 75 17 1 347 313 96 47 282 90 324 104 205 95 168 191 292 183 203 225 169 129 133 216 114 121 224 273 247 211 223 238 132 162 169 235 242 233 226 218 220 214 211 213 208
188 201 211 216 211 214 220 217 216 213 221 229 245 282 299 299 300 294 291 291 307 307 318 325 317 258 243 110 85 38 322 11 263 172 99 267 172 79 85 72 59 56 53 81 69 359 332 274 147 91 42 20 119 194 161 128 186 215 136 251 261 219 188 145 183 147 213 109 187 211 265 270 20 189 134 129 143 214 242 246 241 232 226 218 213 215 220 216
186 194 201 210 209 211 216 216 210 214 222 226 248 284 296 300 299 293 291 288 280 318 307 300 236 238 220 88 151 86 351 278 220 104 14 290 141 127 113 97 70 65 67 70 85 296 291 302 221 153 87 9 120 176 152 170 185 193 195 212 200 240 122 139 143 172 224 143 202 209 259 263 264 110 91 107 167 211 245 256 255 243 228 223 217 220 223 226
188 185 192 204 204 207 211 211 208 215 217 227 244 278 287 293 298 295 288 294 306 295 264 241 179 272 280 185 94 191 222 200 151 43 5 308 314 150 117 105 112 109 112 68 45 242 31 43 54 52 126 139 197 207 175 181 204 207 242 217 185 210 197 169 139 164 19 123 180 214 261 302 100 117 137 163 196 210 242 252 254 254 246 228 222 223 226 227
179 180 197 200 203 201 209 207 215 219 224 228 261 262 266 275 282 276 277 292 263 214 236 308 157 213 242 49 204 206 180 119 12 172 10 41 304 134 141 134 122 108 109 128 120 204 38 167 159 226 247 233 200 208 212 219 212 205 198 250 246 226 232 250 107 181 168 229 213 217 248 251 264 239 160 173 185 197 240 256 261 262 260 241 226 222 223 223
179 183 191 206 198 199 205 217 217 221 225 244 258 291 273 276 281 258 221 217 203 221 222 242 263 232 193 62 202 152 78 124 138 82 10 2 316 172 229 145 129 137 151 141 134 237 99 162 219 224 166 200 207 205 215 214 219 206 186 222 231 231 248 280 264 132 190 180 253 238 237 260 263 267 268 240 201 229 253 260 262 261 258 251 230 227 223 222
182 187 190 197 200 196 205 211 212 214 223 242 257 270 276 262 245 253 162 163 174 143 187 186 187 197 263 163 97 105 95 75 122 231 151 151 123 245 118 120 162 159 178 217 114 212 161 139 233 218 205 194 203 211 218 305 356 13 199 247 304 257 210 236 118 123 231 227 237 241 250 263 266 265 258 255 251 230 250 260 261 257 255 252 243 230 226 221
182 186 188 193 200 196 202 207 209 212 209 224 210 205 186 154 159 156 183 231 234 319 341 92 191 70 112 118 110 63 145 207 151 87 125 36 190 170 145 167 128 260 187 217 130 191 356 210 199 208 219 211 205 220 309 62 37 36 337 297 271 281 281 277 134 113 144 275 255 255 258 260 268 271 272 271 268 264 252 254 254 248 246 244 239 235 229 224
181 186 186 188 192 195 201 204 213 203 234 251 226 212 178 176 161 179 166 220 190 62 355 18 25 51 52 102 120 156 128 134 348 150 142 4 296 185 161 180 179 204 194 48 117 89 246 232 219 229 322 8 150 116 114 58 2 268 266 261 253 232 268 301 22 142 154 237 278 274 270 262 264 268 272 272 265 255 253 256 253 251 245 244 240 235 227 226
183 184 184 185 186 192 199 200 208 190 257 240 223 225 320 138 360 353 178 197 217 124 222 25 257 103 61 117 127 348 288 128 166 146 145 221 174 210 151 210 187 217 120 136 131 167 204 221 232 159 87 82 64 143 175 244 220 212 254 237 267 258 271 278 247 120 176 216 266 273 276 269 264 264 264 260 254 251 250 250 256 259 259 253 248 244 238 216
184 185 184 183 185 184 189 192 201 202 217 206 214 244 271 31 293 254 299 274 178 98 212 220 188 159 107 75 174 249 197 178 172 172 173 215 165 248 151 201 202 185 149 190 199 196 225 221 206 95 117 129 105 147 186 193 229 230 213 227 242 57 340 291 113 347 185 229 297 314 293 273 256 248 248 249 250 257 257 257 257 252 255 254 252 250 244 236
184 180 181 184 177 182 181 180 189 213 226 223 252 242 41 350 316 283 258 218 176 149 205 182 286 193 164 151 169 191 216 133 157 171 146 196 180 149 193 199 205 191 204 199 217 223 223 62 43 187 136 190 177 164 186 198 222 212 236 243 257 237 256 250 316 322 298 237 351 286 279 271 227 233 237 241 241 245 252 254 252 248 246 253 260 260 252 251
183 180 180 182 174 173 172 164 192 216 211 241 266 257 143 53 338 342 252 163 236 164 335 320 165 252 148 41 150 201 179 73 339 138 159 204 141 138 208 80 236 208 213 200 229 241 230 81 91 141 177 190 176 185 197 208 240 207 211 229 252 282 289 290 306 338 308 271 115 340 315 298 121 185 216 140 167 213 231 235 240 244 243 237 239 241 241 237
181 177 179 181 171 162 152 184 209 185 179 210 181 161 133 119 354 326 276 229 245 145 111 203 138 184 127 163 128 184 67 220 88 73 158 300 343 253 104 203 220 228 202 198 219 246 278 110 195 143 158 171 204 228 194 203 238 249 156 223 251 262 298 283 285 325 276 285 102 351 345 288 225 252 230 204 209 237 252 238 248 253 254 242 229 231 228 228
178 177 177 178 167 157 161 210 131 142 170 233 191 143 130 105 27 312 214 177 262 159 162 54 206 179 307 151 157 145 213 183 116 113 165 13 193 8 212 172 154 11 48 128 21 223 129 166 148 166 153 178 189 215 186 197 225 231 54 42 54 233 226 260 267 263 270 316 291 198 219 284 288 238 225 217 226 243 245 246 255 258 256 243 234 229 228 225
179 176 178 175 165 185 5 113 145 174 193 43 357 120 126 89 271 250 258 220 241 129 160 195 233 355 266 151 190 196 28 113 154 173 17 94 289 154 253 188 190 187 177 178 224 55 174 169 182 173 190 191 209 2 149 189 222 59 109 31 95 156 269 213 258 274 287 324 293 160 188 231 271 80 177 177 208 215 235 249 258 266 264 260 228 228 230 230
179 177 179 174 164 207 243 166 183 195 69 63 59 122 98 103 271 214 197 234 113 117 347 138 296 177 95 159 139 113 151 341 292 97 134 54 4 317 205 223 215 211 176 203 241 111 23 59 196 201 185 211 100 49 5 183 219 127 132 92 92 96 111 219 276 270 286 304 267 157 184 257 282 189 161 170 213 191 216 238 249 261 283 164 212 223 202 153
175 176 178 168 162 205 230 261 237 170 76 84 130 106 127 195 179 213 149 243 132 178 119 100 199 173 162 157 187 160 171 125 45 130 155 176 163 233 20 330 223 147 176 242 324 58 53 212 336 279 222 45 94 64 32 40 60 132 150 126 139 152 179 197 239 270 291 248 262 173 179 200 276 191 152 157 194 180 200 222 231 256 268 276 253 156 136 124
179 175 175 169 184 184 176 227 224 140 94 127 139 149 149 193 208 192 201 201 7 85 128 154 146 150 165 172 175 178 189 123 148 147 148 177 151 225 158 167 35 187 89 216 237 139 150 97 176 127 75 131 113 84 54 23 140 166 166 185 184 216 193 227 212 164 235 261 357 132 192 197 237 135 176 200 136 180 197 209 237 267 274 283 282 125 107 105
181 178 173 176 187 174 188 222 136 116 128 168 162 153 175 176 264 215 208 74 247 163 180 165 163 172 179 182 161 170 169 155 162 182 169 178 171 181 194 200 160 195 229 205 214 116 209 219 117 105 294 164 165 125 84 99 198 226 184 186 210 230 181 228 179 219 208 250 115 93 84 283 239 247 280 258 203 196 229 246 258 276 280 280 284 123 116 120
182 182 175 181 178 198 210 82 132 130 135 178 162 181 187 187 205 199 226 139 233 140 160 153 164 175 177 178 190 166 168 183 164 195 173 183 194 205 202 210 183 198 241 188 192 146 222 112 160 146 135 237 210 183 154 195 195 199 197 179 191 237 234 252 229 238 278 227 125 160 127 254 289 282 228 243 230 226 215 224 247 258 270 275 272 130 124 150
183 180 181 187 189 201 199 133 156 142 149 171 159 146 239 203 212 193 222 198 187 33 102 133 147 166 174 185 179 154 161 189 162 177 181 176 205 204 203 222 215 210 321 154 193 178 219 226 211 149 222 169 207 222 193 201 173 201 202 190 207 220 224 246 228 237 241 275 129 207 173 242 358 42 23 226 238 221 221 224 224 243 259 261 264 122 157 170
186 184 186 179 190 206 183 145 142 156 155 164 168 183 186 208 204 204 217 187 97 119 98 136 139 158 174 46 10 171 306 163 193 159 188 185 203 214 198 202 206 220 194 200 199 173 215 245 125 169 27 153 194 197 76 121 138 193 214 236 248 238 245 256 318 303 337 340 286 173 225 274 248 98 148 114 141 196 219 222 227 237 249 251 270 262 196 211
194 198 180 180 188 199 150 153 158 164 176 175 169 192 204 187 209 200 219 107 134 132 132 136 141 164 177 166 17 197 353 130 172 176 199 211 216 213 211 200 195 194 183 206 143 201 82 229 89 99 54 183 183 94 197 189 215 174 160 213 210 17 232 266 184 116 98 285 258 202 264 248 267 263 222 186 197 207 197 213 225 235 241 251 262 274 270 261
181 169 219 151 193 177 149 155 161 166 208 208 183 201 202 216 221 213 151 165 150 129 146 145 189 184 180 192 182 191 159 101 163 179 200 175 256 232 215 215 195 190 210 193 208 247 220 146 348 162 208 30 15 327 33 31 6 108 213 204 68 48 4 226 259 199 233 249 271 161 252 278 282 298 142 187 208 212 208 223 227 234 241 249 248 254 257 265
167 179 230 198 188 160 151 158 154 166 158 182 208 207 208 230 209 223 128 124 145 144 166 178 158 192 185 175 190 177 179 190 168 189 212 162 247 183 198 214 197 202 202 202 266 150 188 243 135 357 25 78 27 95 224 130 12 297 218 37 178 208 214 209 229 251 250 251 278 255 261 261 231 249 213 187 186 206 214 220 229 235 233 230 244 253 255 240
161 149 230 194 146 149 149 158 159 147 127 186 192 213 214 230 209 199 164 145 162 162 193 192 165 202 184 193 149 164 162 191 163 189 176 183 223 179 191 170 190 201 197 185 219 172 176 232 178 315 138 102 150 183 209 183 165 280 286 261 328 313 244 193 200 276 252 266 265 276 275 275 181 230 237 227 180 192 202 211 210 234 228 221 224 249 238 190
155 158 241 142 148 148 139 153 148 150 168 189 194 222 192 218 192 155 160 156 177 182 205 202 195 174 198 197 155 163 194 199 162 189 202 168 215 154 198 174 184 180 187 191 208 148 214 144 257 114 285 173 195 196 215 169 179 196 217 230 175 209 26 334 254 219 236 261 262 287 290 263 275 209 191 216 198 198 198 180 186 210 223 207 188 126 219 252
160 178 212 149 151 139 142 162 171 166 190 238 217 194 173 208 184 195 187 165 190 286 239 209 199 202 174 177 183 164 173 191 188 192 198 197 193 223 192 182 165 158 172 185 204 185 204 165 223 138 187 208 218 178 210 210 199 192 190 205 196 178 190 207 241 186 228 228 244 264 264 277 127 49 129 124 160 192 155 200 224 175 176 170 164 179 193 243
203 212 193 160 146 145 151 185 156 142 145 204 211 195 194 28 190 182 178 179 226 205 256 265 220 218 180 196 173 175 165 188 193 199 207 215 202 230 144 180 175 150 158 175 200 199 195 198 220 196 209 212 204 51 34 48 10 293 231 225 202 206 193 200 231 196 190 228 308 273 308 274 118 113 168 132 125 271 289 231 198 149 164 170 183 181 172 191
217 233 59 153 158 154 164 195 143 169 196 220 306 308 316 328 211 152 180 169 199 180 176 212 207 209 203 192 178 166 169 198 184 204 208 218 228 210 151 187 161 163 166 158 159 136 127 200 204 240 194 127 101 124 59 58 308 260 239 328 216 203 199 210 227 236 203 173 224 233 233 264 99 79 100 79 76 310 332 232 163 162 174 175 182 168 205 190
225 219 104 184 169 167 182 187 171 184 208 202 192 220 228 277 238 214 221 189 197 179 206 194 206 220 228 193 190 186 169 221 190 204 219 206 219 112 148 169 166 169 183 181 186 153 182 195 219 215 230 207 195 169 220 119 206 232 229 194 230 225 214 217 48 6 254 217 221 207 238 260 85 84 98 169 152 191 195 218 208 156 192 215 124 154 194 205
177 3 305 169 187 179 203 173 183 181 186 179 174 210 214 236 233 232 222 209 203 210 184 211 196 155 201 155 206 198 183 205 206 205 221 194 201 50 134 169 184 190 195 46 70 158 199 157 180 206 216 221 213 206 208 188 196 208 224 224 203 213 215 192 225 219 240 246 227 224 248 261 244 115 156 141 172 180 194 195 207 214 160 239 180 194 210 199
202 222 156 224 201 192 220 160 156 155 163 166 184 207 199 215 211 202 223 263 221 317 290 21 67 173 164 171 191 194 205 206 224 141 202 196 148 200 171 185 187 202 175 119 154 164 176 213 199 201 214 227 230 74 84 127 137 184 209 204 208 211 215 219 227 226 229 240 236 226 240 261 268 247 152 177 228 198 195 188 231 236 217 217 249 239 212 208
335 227 169 192 197 225 200 161 180 167 190 176 194 167 196 209 207 196 190 236 201 184 203 231 194 183 189 188 197 199 202 206 149 133 206 199 95 115 40 262 210 188 101 113 146 104 97 205 214 225 232 243 248 250 169 147 171 200 199 199 207 204 205 213 214 228 229 251 254 239 235 249 262 265 256 260 204 224 235 229 228 227 216 193 215 225 220 232
224 252 224 226 247 200 204 184 183 192 195 178 212 169 199 199 192 199 171 222 272 188 183 1 232 248 203 194 179 198 180 204 178 210 158 198 115 168 111 161 210 107 150 121 226 156 161 214 220 222 237 247 256 262 203 186 201 198 199 195 199 204 205 211 225 235 231 225 245 256 247 244 256 265 262 252 270 272 269 242 237 244 222 218 221 205 221 237
267 338 295 68 226 214 221 213 182 184 186 176 205 196 200 200 204 198 186 178 194 190 186 223 221 221 222 223 219 202 180 176 221 224 200 148 164 142 158 83 275 52 161 66 100 139 138 235 227 225 244 255 259 256 248 234 234 229 219 206 199 198 207 208 222 227 229 238 248 259 265 260 260 265 267 279 278 278 281 291 279 243 217 246 241 226 223 228
202 207 216 157 264 314 276 228 196 180 192 176 184 202 193 193 205 193 197 175 184 214 182 217 223 216 217 224 224 223 216 217 205 212 182 170 188 187 192 200 126 354 160 168 136 299 167 229 216 242 266 261 260 261 258 254 262 261 243 247 240 218 208 210 217 226 231 238 240 244 254 263 258 257 278 277 271 278 280 266 247 257 260 243 250 254 242 238
351 8 337 257 218 209 206 206 193 197 184 177 197 194 192 201 210 191 195 185 191 187 182 207 215 194 216 226 230 239 243 239 242 250 274 185 218 211 183 263 133 137 147 111 88 354 145 273 54 177 244 255 256 254 256 270 280 280 272 253 242 239 235 217 216 213 220 227 232 246 255 258 265 273 261 271 272 270 271 269 270 270 267 267 260 261 265 257
234 219 339 320 254 200 206 202 220 191 218 198 192 178 179 206 209 173 208 241 227 210 196 207 205 177 203 205 218 224 230 233 252 84 98 53 43 42 68 154 158 153 160 179 153 154 161 165 210 203 231 241 255 247 255 249 251 252 251 244 233 238 244 245 236 225 223 224 236 232 240 249 261 270 272 270 273 270 269 271 268 265 263 263 258 263 267 269